{"data":{"norad_id":66309,"intl_designator":"2025-248S","name":"TOMORROW-S9","alt_names":[],"object_type":"PAYLOAD","status":"ACTIVE","operator":null,"country":"US","launch_date":"2025-11-02","launch_site_code":"AFETR","launch_vehicle":null,"mission":null,"orbit_class":"UNKNOWN","rcs_meters":null,"size_class":null,"mass_kg":null,"dimensions":null,"purposes":[],"wikipedia_slug":null,"has_3d_model":false,"image_url":null,"decayed_at":null,"tle_current":{"epoch":"2026-09-20T05:55:48.664992Z","epoch_age_seconds":153564,"freshness":"FRESH","line1":"1 66309U 25248S   26263.24709103  .00002636  00000+0  12857-3 0  9992","line2":"2 66309  45.4041 331.7933 0004242 249.3246 110.7186 15.21200435 48981","mean_motion":15.21200435,"eccentricity":0.0004242,"inclination_deg":45.4041,"raan_deg":331.7933,"arg_perigee_deg":249.3246,"mean_anomaly_deg":110.7186,"bstar":0.00012857,"rev_number":4898,"period_min":94.662081792003,"perigee_km":499.29989112372,"apogee_km":505.13718476211,"semimajor_km":6880.3555379429,"source":"CELESTRAK","updated_at":"2026-09-21T09:00:15.905370Z"}}}